Dewpoint
6 9 11 12 12 11 7 3 -3 -5 -5 -4 -4 -5 -5 -6 -8 -9 -11 -14 -16 -18 -18 -15 -12 -11 -11 -11 -11 -13 -16 -20
6 7 10 11 12 11 8 4 -2 -5 -5 -4 -3 -4 -4 -5 -6 -8 -9 -12 -15 -16 -16 -13 -11 -10 -9 -10 -11 -14 -18 -21
3 8 9 11 12 11 8 4 -1 -4 -5 -4 -5 -4 -3 -4 -5 -6 -8 -11 -14 -16 -15 -13 -11 -11 -11 -12 -13 -16 -18 -21
1 6 9 10 11 11 8 5 -0 -3 -4 -4 -3 -3 -3 -3 -4 -5 -6 -9 -12 -14 -14 -12 -11 -11 -13 -15 -17 -19 -19 -19
3 7 9 10 10 10 7 5 0 -2 -3 -3 -4 -4 -3 -3 -3 -3 -5 -9 -12 -14 -13 -12 -12 -13 -15 -17 -17 -17 -16 -16
3 5 7 9 9 9 7 4 1 -1 -2 -2 -2 -3 -3 -3 -3 -3 -5 -9 -12 -13 -13 -12 -13 -14 -16 -16 -15 -14 -14 -13
-3 2 5 7 8 8 7 3 1 -1 -1 -1 -2 -2 -3 -3 -3 -3 -6 -9 -13 -13 -12 -12 -14 -15 -14 -14 -13 -13 -13 -12
-0 2 3 5 6 6 5 3 1 -0 -0 0 -0 -1 -2 -3 -3 -4 -8 -10 -13 -12 -12 -13 -15 -14 -14 -13 -13 -13 -14 -14
1 1 2 3 4 5 4 2 0 -1 0 0 -0 -1 -2 -2 -3 -5 -8 -11 -12 -12 -13 -13 -14 -14 -13 -13 -13 -14 -16 -17
0 0 1 2 3 3 2 0 -0 -0 -0 -1 -1 -1 -1 -2 -4 -7 -9 -10 -11 -12 -12 -12 -13 -13 -13 -14 -16 -19 -21 -23
-0 0 1 1 1 0 -0 -1 -1 -1 -1 -1 -1 -1 -1 -3 -5 -8 -9 -9 -10 -11 -12 -11 -12 -13 -15 -20 -24 -27 -28 -29
-0 -0 0 0 -0 -1 -1 -1 -1 -1 -1 -1 -1 -2 -3 -4 -7 -8 -8 -9 -9 -10 -11 -12 -13 -17 -23 -26 -30 -32 -32 -32
-0 -1 -0 -0 -0 -1 -1 -2 -2 -2 -2 -2 -2 -2 -3 -6 -7 -7 -6 -8 -9 -10 -12 -15 -20 -24 -26 -31 -34 -35 -35 -33
-0 -1 -1 -1 -1 -1 -1 -2 -2 -0 -0 -1 -2 -3 -3 -3 -3 -4 -8 -9 -10 -12 -18 -22 -25 -27 -30 -34 -35 -35 -34 -32
1 -1 -1 -1 0 0 0 1 -0 -0 -1 -1 -1 -2 -1 -3 -5 -7 -8 -9 -11 -17 -21 -25 -26 -28 -32 -34 -33 -33 -31 -31
2 1 -0 1 1 1 1 0 -0 -0 -1 -1 -1 -2 -4 -5 -7 -8 -8 -10 -14 -20 -25 -26 -28 -28 -34 -32 -30 -31 -31 -31
1 1 1 1 2 2 2 1 0 -0 -0 -1 -2 -4 -6 -7 -8 -8 -9 -12 -18 -23 -25 -25 -27 -27 -34 -33 -32 -32 -32 -32
3 2 1 1 1 2 2 1 0 -0 -1 -2 -4 -6 -7 -7 -7 -8 -10 -16 -21 -24 -26 -29 -29 -19 -30 -32 -34 -32 -32 -33
-3 2 3 2 2 2 2 1 0 -1 -1 -4 -6 -6 -7 -7 -7 -8 -14 -19 -24 -28 -30 -30 -27 -17 -26 -32 -33 -33 -32 -33
Wind_Speed
32 36 36 36 39 38 35 32 30 29 27 25 23 20 18 16 13 10 8 6 5 3 2 3 5 6 7 9 10 11 11 9
26 35 37 36 38 40 39 36 34 33 32 31 27 24 21 18 15 12 10 7 5 3 2 3 4 6 8 10 11 10 10 10
27 33 37 39 40 43 42 39 37 36 34 33 29 27 23 18 15 13 10 7 5 4 2 2 4 6 7 8 9 10 10 9
29 34 38 39 42 46 47 43 40 38 36 33 31 28 24 22 19 15 12 9 6 3 2 2 3 5 7 9 10 9 9 9
24 31 37 41 43 45 46 44 41 38 36 36 34 33 29 25 20 16 12 9 6 4 2 1 4 6 7 7 8 8 8 7
21 26 31 36 41 46 49 45 41 39 38 36 35 31 28 24 21 17 13 10 7 4 1 2 5 6 7 7 7 8 9 9
13 20 25 32 38 43 45 44 43 41 39 37 34 31 29 26 23 19 15 11 8 5 1 2 5 6 6 6 7 7 8 9
7 15 21 28 34 37 43 46 44 41 39 36 34 31 28 24 22 19 15 13 8 4 1 2 3 5 5 5 5 5 6 6
7 10 14 20 27 34 43 44 41 39 38 37 35 30 27 25 21 18 14 10 8 5 3 1 1 3 3 3 4 5 6 6
8 8 11 16 24 35 40 39 37 37 36 34 32 29 26 24 20 16 13 13 9 6 4 4 3 2 1 2 4 5 5 5
5 2 6 13 25 31 32 33 35 35 33 33 31 29 26 22 19 17 16 11 7 6 6 5 3 2 2 1 2 4 4 4
0 5 10 15 25 29 32 31 30 30 31 30 28 24 21 20 19 16 13 10 8 8 6 5 4 2 2 0 1 2 3 5
3 9 15 18 21 22 24 26 28 28 27 24 22 23 23 19 17 14 12 12 11 9 7 4 3 1 1 2 2 3 3 2
7 12 19 16 16 20 20 21 22 24 23 23 23 21 18 14 14 18 15 12 11 9 6 4 2 2 1 2 2 3 2 4
12 16 21 23 25 22 22 22 21 23 23 23 22 20 20 20 18 16 14 12 9 7 6 5 4 2 4 3 3 5 5 7
19 22 27 24 26 30 29 28 24 25 25 23 22 19 21 20 19 15 14 11 9 7 5 6 4 3 6 4 4 7 6 9
27 24 28 30 29 37 37 33 29 26 23 22 22 24 24 21 19 17 14 11 9 8 8 6 6 3 5 5 7 8 8 9
21 28 34 37 36 37 39 34 29 29 27 27 29 27 25 22 18 16 13 10 9 10 8 6 5 3 6 7 10 9 8 9
16 22 34 38 41 37 39 34 33 33 31 32 30 28 23 21 19 15 12 12 11 9 8 7 6 4 7 10 10 9 9 9
Wind_Direction
239 237 231 222 216 214 213 209 208 207 205 202 199 198 198 197 195 192 187 179 170 158 121 81 62 44 28 23 21 16 14 16
245 238 233 223 217 214 212 209 207 205 203 199 199 199 197 195 194 192 190 185 173 152 109 63 40 24 16 12 11 12 12 20
245 237 231 225 218 213 211 209 209 206 207 204 204 200 196 199 195 191 188 185 180 173 153 61 28 21 11 5 7 9 13 17
241 233 229 223 218 215 211 209 207 207 207 205 201 199 198 196 195 195 187 183 181 168 129 54 24 11 4 5 6 16 19 20
243 235 227 223 218 215 211 209 206 206 206 206 208 204 198 197 196 193 189 182 184 185 176 24 7 5 5 6 11 16 27 32
256 245 236 227 219 215 210 206 205 205 205 207 206 204 202 198 193 193 190 188 186 189 169 9 1 4 6 9 17 22 24 27
257 244 233 225 221 216 209 204 203 202 203 204 208 208 204 198 193 192 193 193 189 187 173 355 358 9 8 11 21 23 23 20
249 233 225 222 220 213 205 202 199 199 201 203 206 208 207 203 196 196 197 196 187 188 217 339 351 357 4 11 7 13 20 19
321 248 232 224 217 209 200 197 197 196 197 200 202 202 199 195 197 197 197 197 193 195 195 207 340 330 331 338 348 354 8 14
351 299 250 228 210 200 196 193 194 194 197 198 197 196 197 196 193 196 203 203 191 190 197 212 207 216 252 343 342 347 4 7
23 319 222 198 192 187 186 190 194 193 191 190 189 189 190 189 192 194 198 191 196 200 208 208 198 212 277 306 337 356 0 2
279 181 190 179 176 180 184 185 184 180 183 186 187 184 188 192 192 190 190 195 203 196 199 200 213 215 227 75 45 50 28 13
195 183 178 174 180 178 177 178 180 182 179 176 188 193 191 187 184 188 204 203 186 187 191 197 188 168 90 72 64 46 40 24
193 197 177 175 178 175 177 178 178 190 188 187 189 191 191 191 203 207 191 184 182 181 180 177 149 96 53 38 59 72 70 54
205 207 201 202 199 192 194 200 213 190 192 193 194 202 211 204 193 186 185 184 184 172 168 163 157 116 75 49 67 77 63 60
224 228 217 214 201 200 210 219 211 205 199 200 201 198 202 191 188 190 191 184 184 170 162 166 135 87 75 79 68 70 62 44
228 234 229 227 218 211 215 215 210 205 203 200 202 196 189 192 195 192 189 186 181 177 170 154 126 98 81 80 69 62 49 45
242 241 232 231 227 223 221 218 211 204 200 200 197 194 192 191 192 194 191 192 187 177 166 142 136 123 81 73 57 58 42 38
280 251 245 237 230 222 220 217 210 206 200 197 193 189 186 189 194 198 198 193 182 170 154 156 158 136 78 65 57 53 30 20
Height
1452 1454 1458 1465 1470 1474 1479 1483 1487 1491 1496 1499 1503 1505 1507 1509 1511 1513 1514 1514 1515 1516 1516 1515 1514 1514 1514 1514 1513 1513 1512 1509
1444 1447 1452 1458 1464 1469 1473 1477 1481 1485 1489 1493 1497 1500 1504 1506 1508 1509 1511 1513 1514 1514 1515 1514 1513 1513 1512 1512 1511 1511 1510 1509
1436 1439 1444 1449 1455 1461 1466 1470 1476 1480 1485 1489 1493 1496 1500 1505 1506 1507 1509 1511 1511 1511 1511 1512 1512 1511 1511 1509 1508 1509 1507 1507
1429 1430 1436 1442 1447 1452 1458 1464 1470 1476 1480 1486 1490 1494 1497 1499 1502 1504 1505 1506 1509 1510 1510 1510 1509 1509 1509 1507 1506 1505 1506 1505
1426 1427 1430 1435 1441 1448 1455 1460 1466 1472 1477 1481 1484 1488 1492 1496 1499 1501 1503 1505 1506 1507 1507 1507 1508 1507 1506 1505 1504 1503 1504 1504
1425 1426 1428 1432 1437 1441 1447 1455 1463 1467 1472 1477 1482 1486 1490 1493 1496 1499 1501 1502 1503 1505 1505 1506 1505 1504 1504 1503 1502 1502 1500 1501
1421 1423 1425 1428 1432 1437 1445 1451 1455 1461 1466 1471 1477 1481 1485 1488 1491 1494 1497 1499 1500 1501 1501 1503 1503 1502 1502 1502 1501 1500 1497 1499
1421 1421 1423 1425 1428 1434 1441 1446 1451 1456 1463 1468 1474 1477 1481 1486 1488 1491 1494 1496 1496 1499 1499 1499 1499 1499 1499 1501 1501 1500 1498 1496
1427 1424 1423 1424 1428 1432 1437 1443 1448 1453 1459 1465 1471 1475 1478 1482 1486 1489 1491 1494 1494 1495 1497 1497 1496 1497 1497 1499 1499 1498 1496 1493
1430 1429 1426 1426 1429 1432 1437 1443 1449 1454 1458 1463 1469 1474 1477 1480 1483 1487 1490 1491 1490 1494 1495 1496 1494 1493 1495 1495 1496 1496 1494 1493
1428 1430 1430 1431 1432 1436 1440 1445 1450 1453 1459 1464 1469 1472 1475 1479 1482 1485 1490 1490 1491 1494 1496 1495 1493 1493 1493 1492 1492 1493 1494 1493
1429 1429 1432 1433 1435 1438 1440 1445 1451 1455 1459 1463 1468 1471 1475 1477 1480 1484 1487 1489 1490 1493 1495 1494 1494 1492 1493 1491 1490 1490 1490 1489
1432 1430 1430 1433 1436 1441 1445 1447 1452 1456 1460 1463 1468 1472 1474 1476 1478 1482 1486 1487 1489 1492 1494 1493 1493 1492 1493 1491 1489 1487 1486 1489
1436 1434 1432 1434 1441 1443 1447 1452 1454 1457 1459 1462 1466 1471 1473 1476 1479 1482 1485 1485 1487 1489 1491 1491 1490 1490 1492 1490 1487 1486 1487 1486
1430 1435 1435 1431 1435 1443 1448 1450 1450 1453 1457 1461 1464 1469 1473 1474 1478 1481 1481 1484 1486 1486 1488 1488 1489 1488 1487 1491 1490 1484 1487 1480
1426 1431 1434 1433 1432 1437 1441 1445 1448 1451 1455 1459 1463 1466 1472 1475 1477 1479 1482 1483 1484 1483 1484 1487 1485 1485 1483 1489 1492 1483 1483 1481
1422 1425 1427 1428 1429 1433 1435 1440 1441 1448 1451 1455 1461 1465 1469 1473 1476 1479 1482 1483 1483 1482 1483 1484 1483 1483 1485 1486 1486 1482 1482 1481
1417 1418 1420 1423 1423 1426 1431 1436 1441 1445 1448 1455 1458 1462 1467 1470 1476 1479 1479 1481 1482 1483 1482 1481 1482 1485 1483 1483 1479 1481 1483 1482
1411 1414 1414 1415 1418 1420 1425 1431 1437 1441 1445 1453 1458 1462 1465 1470 1472 1475 1477 1480 1481 1481 1478 1482 1485 1484 1481 1475 1477 1478 1482 1484